Lapse_Rate
4.5 4.4 4.3 4.2 4.1 4.1 4.2 4.2 4.4 4.8 5.1 5.2 5.5 5.7 5.9 6.2 6.6 6.8 7.4 7.8 7.9 7.9 8.3 8.6 8.4 8.7 8.2 8.0 8.4 8.6 8.0 7.4 7.5 7.6 7.6 7.3 7.7 7.4 7.3 7.6 6.5 6.6 6.7 7.1 6.8
4.7 4.6 4.5 4.4 4.2 4.1 4.0 4.1 4.1 4.4 4.8 5.0 5.2 5.5 5.7 6.1 6.5 7.0 6.8 7.0 7.6 7.9 8.2 8.3 8.4 8.4 8.2 8.5 8.4 8.2 8.1 7.8 7.5 7.6 7.8 7.6 7.6 8.3 7.5 7.7 7.2 7.3 6.7 7.0 7.1
4.6 4.7 4.7 4.6 4.5 4.3 4.1 3.9 4.0 4.1 4.4 4.7 4.9 5.3 5.7 6.0 6.3 6.8 7.3 7.3 7.6 8.1 8.1 8.2 8.2 8.2 8.3 8.3 8.4 8.3 7.8 7.7 7.9 8.2 7.9 7.8 7.7 8.1 7.6 7.7 7.4 7.5 7.4 7.3 7.3
4.9 4.7 4.8 4.8 4.7 4.6 4.4 4.1 3.9 4.0 4.2 4.4 4.7 5.1 5.5 5.9 6.0 6.3 7.0 7.3 7.5 8.1 7.9 8.3 8.3 8.0 8.1 8.1 8.3 8.5 8.4 7.9 8.1 8.2 7.9 7.7 7.6 7.6 7.4 7.4 7.3 7.2 7.2 7.3 7.1
4.9 4.9 4.9 4.9 4.9 4.9 4.7 4.5 4.2 4.1 4.1 4.2 4.4 4.8 5.4 5.7 5.9 5.9 6.5 7.2 7.1 7.8 8.1 8.4 8.0 7.9 8.3 8.2 8.4 8.5 8.7 7.8 8.1 7.6 7.5 7.3 7.1 7.1 7.0 7.0 7.1 7.2 7.2 7.7 7.7
5.4 5.3 5.1 5.0 5.1 5.0 5.0 4.9 4.6 4.3 4.2 4.2 4.2 4.6 5.1 5.5 6.0 5.9 6.3 7.1 7.4 7.9 8.3 8.5 8.2 8.5 8.6 7.7 8.5 8.4 8.2 8.1 8.3 7.7 7.4 7.5 7.1 6.7 6.6 6.7 7.0 7.1 7.3 7.6 7.6
5.4 5.5 5.6 5.3 5.3 5.3 5.1 5.0 5.0 4.7 4.4 4.3 4.3 4.4 5.1 5.3 5.6 5.9 6.2 6.8 7.4 8.0 8.3 8.5 8.3 8.4 8.5 8.3 8.1 7.9 7.8 8.0 8.1 8.2 8.2 8.1 7.5 6.8 6.8 6.8 6.8 6.9 7.0 7.3 7.5
5.5 5.6 5.7 5.7 5.7 5.6 5.3 4.9 5.1 5.0 4.6 4.5 4.4 4.4 5.4 5.1 5.9 6.0 6.3 6.8 7.4 7.4 7.7 8.0 8.2 8.5 8.7 7.9 7.8 7.1 7.4 7.6 7.8 8.3 8.6 8.2 8.0 7.1 6.7 6.7 7.0 6.8 6.7 6.9 7.3
5.4 5.6 5.8 5.8 5.9 5.9 5.6 5.1 5.0 5.0 5.0 4.8 5.0 4.7 5.3 5.6 6.0 5.8 6.1 7.0 7.3 7.6 7.8 7.7 8.2 8.4 8.5 7.9 7.0 6.9 6.9 7.4 7.8 8.4 8.4 8.2 8.0 7.4 6.8 6.5 6.3 6.7 6.8 6.7 6.6
5.1 5.4 5.7 5.8 5.9 6.2 5.7 5.2 4.9 5.1 5.4 5.4 5.2 5.2 5.2 5.0 5.0 5.1 5.6 6.6 7.1 7.3 7.5 7.3 7.9 8.0 8.3 7.4 6.8 6.3 6.7 7.4 8.5 7.9 7.7 7.9 8.3 8.3 7.3 6.5 6.7 6.4 6.4 6.4 6.3
5.0 5.4 5.7 5.7 6.0 6.2 6.1 5.2 5.1 5.1 5.5 5.6 5.6 5.8 5.6 5.2 5.3 5.2 5.3 5.8 6.7 6.8 7.0 7.2 7.2 7.2 8.0 8.3 7.9 7.6 7.3 7.8 8.8 8.6 8.5 8.2 8.5 8.7 8.1 7.4 7.3 7.0 6.6 6.4 6.6
5.0 5.2 5.4 5.6 5.9 6.2 6.2 5.4 5.5 5.1 6.1 5.7 5.9 5.8 5.9 5.3 5.5 5.4 5.1 5.0 5.9 6.3 6.7 6.9 6.8 7.8 8.3 8.6 8.4 8.1 7.9 8.0 8.3 8.5 8.5 8.6 8.5 8.4 8.5 8.4 8.4 8.2 7.8 7.5 6.8
5.1 5.3 5.5 5.6 5.7 6.1 6.1 5.8 5.6 5.2 4.9 7.6 6.5 6.0 6.5 5.4 5.7 5.8 5.4 5.1 5.2 6.0 6.2 6.4 7.3 8.0 7.9 8.4 8.6 8.1 8.0 8.7 8.4 8.3 8.2 8.5 8.0 7.9 7.9 8.0 7.9 7.7 7.6 7.4 7.7
5.2 5.3 5.4 5.7 5.8 6.0 5.9 5.9 5.8 5.4 5.0 6.9 7.1 6.6 6.8 5.9 5.5 6.0 5.5 5.5 5.0 5.6 6.2 6.2 7.8 8.0 8.0 8.4 8.7 8.5 8.8 9.1 8.8 8.5 8.0 8.1 7.4 8.3 8.3 7.9 7.7 8.0 7.7 7.7 7.4
5.2 5.2 5.4 5.6 6.1 5.7 6.1 5.9 5.9 5.5 4.5 7.2 7.0 6.7 7.0 6.2 6.9 6.0 5.9 5.8 5.5 5.4 5.9 5.9 7.2 7.9 7.8 8.4 8.9 8.9 9.4 9.3 9.1 8.6 8.3 7.7 8.2 8.7 8.2 7.7 8.4 8.1 8.1 8.0 7.7
5.3 5.2 5.4 5.4 6.4 5.4 6.0 6.0 5.8 5.4 5.1 7.5 7.3 6.9 6.7 7.0 6.7 7.0 6.4 6.2 6.4 5.9 6.0 6.4 6.9 8.1 8.0 8.6 9.0 9.3 9.2 9.0 9.0 8.6 7.8 8.7 8.2 8.4 8.3 8.7 9.0 8.5 8.4 8.3 8.1
5.3 5.3 5.4 5.9 6.0 5.5 5.9 5.9 5.7 5.2 6.9 7.9 7.7 7.4 6.9 7.0 7.2 7.0 6.8 6.4 6.4 6.3 6.1 6.3 6.7 7.7 8.2 8.7 8.9 8.8 8.8 8.6 7.6 7.1 6.7 8.6 7.9 7.9 8.9 9.1 9.1 9.1 9.2 9.0 8.5
5.4 5.4 5.6 6.2 5.5 5.7 5.9 5.7 5.2 5.7 7.2 8.4 8.3 8.2 7.8 7.4 8.1 7.8 7.5 7.0 6.7 6.9 6.4 6.3 6.8 7.6 8.1 8.0 8.6 8.7 8.8 8.4 7.1 6.3 7.7 8.7 7.8 7.9 9.1 9.2 9.2 9.2 9.0 8.8 8.8
5.8 5.7 5.8 5.7 5.8 6.0 5.8 5.5 5.3 6.3 7.0 7.5 7.8 8.0 8.2 7.9 8.2 8.5 8.2 7.8 7.4 7.0 6.8 6.5 6.4 7.6 8.2 8.2 8.3 8.8 8.5 8.8 8.9 8.2 8.0 8.7 9.0 9.0 9.0 9.4 9.4 9.1 8.9 8.6 8.8
6.1 6.3 5.9 6.0 6.1 6.1 5.8 5.5 6.0 6.5 6.9 7.3 7.7 7.8 8.1 8.5 8.4 8.8 8.3 8.3 8.1 7.9 7.4 7.1 6.9 7.4 8.0 8.4 8.5 8.6 8.7 8.8 8.6 7.0 7.3 7.7 8.9 9.1 9.4 9.5 9.3 9.1 9.1 8.9 8.9
5.9 6.4 6.2 6.1 6.4 6.2 5.6 6.0 6.5 6.6 6.9 7.2 7.4 7.5 7.8 8.0 8.0 8.2 7.9 8.4 8.3 8.6 8.6 7.7 7.2 7.6 8.0 8.0 8.3 8.8 8.8 8.7 8.8 8.8 6.2 6.3 8.1 9.1 9.3 9.2 9.4 9.6 9.6 8.9 8.8
5.8 6.2 6.3 6.1 6.2 6.1 6.2 6.6 6.8 6.7 6.9 7.3 7.1 7.5 7.5 7.8 7.9 8.1 8.0 8.2 8.8 8.7 9.0 8.5 7.9 7.7 7.6 8.2 8.5 8.8 8.9 9.0 8.9 8.2 8.6 8.7 8.5 9.2 9.5 9.6 9.6 9.6 9.4 8.9 8.5
5.9 6.5 6.1 6.1 5.9 6.2 6.3 6.3 6.1 6.2 6.5 7.0 6.9 7.2 7.5 7.6 7.6 8.1 8.5 8.6 8.7 8.9 8.4 8.9 8.3 7.8 8.2 8.3 8.3 8.3 8.8 8.8 8.8 9.3 9.1 8.0 8.7 9.1 9.4 9.5 9.5 9.4 9.1 8.8 8.5
6.0 6.5 5.5 6.2 6.0 6.0 5.9 6.0 6.0 6.0 6.1 6.6 6.4 6.6 6.9 7.6 7.2 7.6 8.3 8.4 8.9 9.1 9.0 9.1 8.8 8.2 7.5 7.8 8.5 8.6 8.8 8.9 9.3 9.2 9.2 9.2 9.4 9.5 9.2 9.4 9.4 9.1 8.7 8.7 8.7
5.8 5.9 6.1 5.6 5.6 5.8 5.7 5.9 6.3 5.9 5.9 6.7 6.8 6.9 7.0 7.3 7.3 7.7 8.0 7.9 8.4 8.9 9.2 8.9 8.9 8.7 8.1 8.5 8.5 8.7 8.8 8.9 9.2 9.3 9.4 9.3 9.5 9.6 9.5 9.4 9.4 9.3 9.0 8.9 8.7
5.7 5.8 6.3 6.2 6.1 6.0 6.0 6.0 6.2 6.4 6.4 6.9 7.2 7.4 7.5 7.4 7.4 7.7 8.2 7.5 8.4 9.1 8.7 8.9 9.0 9.0 8.7 8.8 8.9 8.8 8.9 9.0 9.0 9.3 9.7 9.5 9.6 9.6 9.5 9.4 9.3 9.2 9.1 8.9 8.7
6.4 5.9 6.0 6.2 6.2 6.2 6.0 6.1 6.6 6.6 7.0 7.3 7.2 7.7 7.9 7.5 7.5 8.1 7.7 8.1 8.1 8.4 8.5 8.4 8.7 8.8 8.7 8.7 8.8 8.7 9.1 9.0 9.2 9.1 9.4 9.5 9.5 9.4 9.4 9.3 9.3 9.2 9.2 9.2 9.1
Wind_Speed
24 25 25 26 26 25 25 24 23 22 20 21 22 18 18 19 19 1 7 10 7 6 4 3 5 2 3 4 4 3 5 3 6 7 6 10 5 7 7 12 5 5 7 14 18
25 25 26 25 26 26 26 26 25 24 22 20 20 20 16 15 4 7 13 14 15 15 4 6 4 2 4 5 5 5 3 6 8 6 12 10 15 10 8 12 8 15 14 17 19
26 26 26 27 26 26 26 26 26 25 22 21 19 19 15 9 4 8 3 20 16 13 4 4 2 2 3 2 2 4 6 6 7 7 16 16 12 4 17 7 20 22 21 21 17
28 27 26 27 28 27 26 27 27 27 24 21 19 17 16 2 6 2 2 7 16 10 5 5 3 3 2 2 5 4 5 7 7 8 8 15 9 7 10 6 17 22 22 20 18
30 30 29 28 28 29 28 28 27 27 25 22 17 13 5 2 11 2 3 8 9 9 9 6 5 6 5 6 3 8 6 8 8 10 10 7 4 6 6 14 16 19 21 21 18
29 31 30 30 29 29 29 28 29 28 27 22 13 9 2 5 4 5 5 8 6 7 8 7 8 7 4 7 5 7 3 8 7 8 4 11 8 7 10 17 19 20 20 18 18
29 29 31 32 32 31 30 30 31 31 27 18 8 3 2 16 3 6 1 3 5 9 7 6 4 3 2 4 4 12 5 7 4 3 6 13 4 8 18 20 20 19 18 18 17
31 31 31 32 33 33 32 32 33 31 18 7 7 2 7 5 6 8 4 4 5 3 3 6 6 4 2 5 4 9 5 6 4 6 8 6 5 12 16 21 20 18 17 16 16
29 32 33 32 33 35 35 36 29 10 5 7 3 4 9 7 4 5 6 5 8 3 2 2 6 6 3 3 5 5 13 5 6 8 4 2 5 15 16 17 17 17 19 16 16
29 30 32 33 33 34 36 32 11 4 2 5 5 2 5 2 4 2 4 6 4 6 3 4 3 4 4 5 6 11 8 8 11 16 6 6 6 18 18 17 17 15 13 13 14
30 31 33 34 34 33 18 4 4 3 2 6 7 7 17 9 4 5 2 6 5 4 6 4 4 7 11 9 7 10 8 17 10 8 5 8 8 20 20 17 16 15 14 14 14
30 31 33 35 35 34 1 3 2 2 10 11 19 17 21 4 6 14 8 5 6 6 5 3 8 12 6 7 9 8 9 13 2 9 5 7 8 18 20 21 20 20 17 18 14
30 32 32 35 40 3 3 5 5 5 4 8 10 10 10 13 11 16 9 5 4 7 7 7 6 8 7 6 8 5 8 10 8 10 5 9 4 12 13 10 15 16 18 16 17
30 32 29 36 2 5 5 1 4 3 3 8 5 7 8 11 7 9 9 7 3 12 7 6 7 7 5 6 7 5 8 8 10 17 8 8 5 8 13 15 14 16 17 17 16
30 31 26 17 8 4 3 8 7 2 5 5 5 2 3 12 8 9 7 5 11 5 7 8 7 7 5 7 8 9 9 9 9 15 5 5 4 6 13 10 21 20 19 19 18
32 35 26 3 3 9 15 10 1 4 8 6 4 2 4 3 6 4 6 4 7 5 3 10 4 7 10 6 9 2 4 8 6 5 5 12 8 5 10 27 26 17 18 21 20
36 38 23 7 5 3 5 4 2 5 4 5 3 5 3 3 9 5 6 8 10 10 5 4 8 4 3 4 4 5 7 2 3 2 6 9 7 11 18 24 28 26 21 21 21
42 41 7 5 18 6 3 4 6 6 13 5 7 9 3 3 4 6 7 8 5 5 4 7 9 9 3 8 8 7 10 6 7 5 6 7 7 12 18 20 24 20 20 16 19
36 4 4 4 12 5 4 3 7 6 4 3 5 3 4 4 5 4 5 12 16 10 8 7 8 3 6 6 11 4 4 9 5 1 3 5 6 8 7 11 19 23 15 18 19
8 5 4 2 14 2 4 5 7 6 4 2 0 2 2 4 6 7 2 6 8 12 8 8 3 7 13 5 6 13 7 1 2 6 5 4 3 5 6 6 12 15 17 20 20
3 5 3 8 3 3 4 8 7 8 6 3 2 5 4 4 5 2 7 9 11 11 14 8 6 6 4 8 12 3 3 3 5 4 7 4 7 9 8 8 14 18 22 21 19
4 4 4 3 2 1 3 7 5 5 3 5 5 6 6 2 6 5 8 8 8 10 11 10 7 12 14 5 3 7 10 9 7 6 1 4 7 3 9 9 14 16 16 14 16
6 4 4 3 1 3 6 5 4 3 7 5 7 8 5 5 5 8 6 14 18 14 16 9 4 7 8 4 1 4 5 6 3 4 9 6 6 1 4 7 10 10 10 13 15
3 4 4 3 1 2 4 5 4 6 8 7 8 8 9 8 11 6 11 13 18 11 26 16 6 15 16 9 5 5 6 8 8 5 6 7 7 4 7 9 9 10 11 15 17
2 3 1 3 3 6 2 4 4 4 4 6 4 13 11 6 7 5 10 19 9 6 10 15 9 8 19 16 6 7 9 7 8 12 10 11 10 10 12 12 15 16 10 12 15
3 3 5 4 3 5 2 3 4 4 4 7 8 10 11 8 11 5 8 6 7 7 0 4 7 10 8 11 15 11 14 13 17 2 3 6 7 7 11 4 7 12 12 11 11
2 3 1 4 4 4 2 4 8 12 8 14 8 4 5 8 6 8 13 10 6 6 3 6 11 6 17 6 6 4 11 6 6 5 7 5 10 7 4 7 12 10 11 15 10
Wind_Direction
356 353 351 348 345 344 341 340 338 339 338 334 329 327 324 320 315 199 240 219 192 155 175 277 301 170 186 152 170 92 79 104 179 161 162 171 138 173 93 133 145 194 134 148 147
354 351 349 346 343 340 339 335 334 334 333 332 328 323 322 329 306 258 237 218 187 143 160 198 277 349 34 15 14 75 49 179 179 171 166 168 165 148 135 158 113 111 119 144 147
351 349 346 343 341 338 336 333 329 327 328 327 325 320 318 326 313 251 230 214 198 165 179 167 77 45 59 146 188 181 186 162 183 166 162 151 161 103 148 169 156 149 151 156 161
346 345 344 342 339 336 333 330 325 322 321 322 321 317 316 274 290 265 5 223 189 164 131 143 112 100 126 206 216 137 253 166 145 143 130 159 141 130 170 184 161 150 157 161 165
342 340 340 338 337 333 329 326 321 317 315 316 315 318 322 307 248 352 332 119 139 148 160 147 138 150 175 207 210 177 197 159 136 113 130 115 130 139 185 136 146 152 158 170 175
340 336 335 334 334 332 327 323 317 313 310 308 302 309 243 262 246 358 180 137 153 137 159 156 182 194 159 230 182 165 175 108 113 118 134 120 125 117 151 136 148 160 170 175 180
338 336 333 331 330 329 325 320 315 312 306 295 269 249 213 238 279 334 124 214 138 163 138 210 160 69 186 336 275 118 87 68 93 180 126 120 66 163 154 148 157 171 177 181 188
335 334 332 330 328 325 322 318 314 312 300 246 197 207 243 248 275 292 165 277 116 111 168 159 151 144 163 268 40 98 38 129 217 188 182 87 195 165 165 158 168 176 184 190 196
333 332 331 329 327 324 320 316 315 325 78 155 149 168 264 314 254 256 154 212 116 134 211 196 146 172 124 88 36 67 177 198 177 214 148 130 141 178 175 174 178 177 185 193 196
333 331 328 327 325 325 321 308 280 345 170 217 254 325 277 311 313 286 219 147 136 127 151 183 105 135 84 110 183 178 168 211 165 197 176 217 174 166 177 177 187 195 194 196 184
332 330 327 326 325 326 333 352 10 358 199 245 246 267 285 281 260 270 227 116 111 121 164 191 140 189 193 184 154 143 182 199 209 188 138 199 160 175 181 187 191 196 201 205 207
331 327 326 325 324 325 321 32 74 192 298 247 245 246 251 79 310 283 148 164 146 183 146 92 208 211 177 157 141 156 169 203 300 156 102 182 196 186 185 196 193 194 199 205 207
329 326 327 327 319 350 280 237 26 7 243 272 218 219 225 161 215 256 151 161 164 171 176 164 234 152 174 159 145 168 173 188 185 161 49 116 348 207 218 215 212 206 208 207 200
327 324 330 335 18 328 273 4 335 209 335 279 265 263 167 141 225 214 178 141 210 194 147 213 232 177 173 183 141 195 206 210 153 161 189 168 217 224 211 222 221 215 211 208 203
324 318 327 332 292 298 274 327 318 112 327 256 257 278 187 169 146 220 164 144 195 194 143 227 216 162 176 197 142 227 155 198 174 184 113 209 103 255 167 226 229 215 211 206 199
323 313 324 329 228 246 309 313 102 53 249 302 309 3 132 231 167 127 143 131 152 199 180 209 231 164 189 182 175 191 104 42 41 133 202 199 182 237 182 213 225 217 215 203 198
320 311 305 255 225 137 304 10 70 175 311 271 316 348 188 219 200 158 155 173 177 193 214 194 236 243 151 230 141 99 83 326 341 351 214 196 194 232 207 216 215 207 207 200 196
320 310 257 200 223 278 36 61 208 213 232 305 328 344 341 142 221 187 156 190 235 119 143 173 228 205 197 186 170 180 162 162 192 199 228 111 206 237 224 223 222 210 204 194 196
325 321 274 252 179 151 111 173 205 200 224 263 331 330 332 16 39 165 209 206 203 173 165 169 251 283 201 192 152 200 156 196 142 353 121 206 266 324 265 218 212 208 187 199 196
319 331 277 79 148 115 96 223 209 215 336 23 13 279 333 9 13 37 289 236 216 185 164 211 205 224 249 185 228 197 167 104 354 172 232 258 245 228 288 234 208 194 197 201 200
11 343 296 146 150 50 182 216 221 256 276 250 299 259 231 338 193 186 241 287 240 219 192 156 152 254 162 202 214 150 175 83 131 145 175 226 256 212 226 211 192 197 200 199 193
4 328 358 142 43 223 205 195 227 205 259 227 222 235 224 203 274 259 232 210 269 217 183 204 178 233 229 228 197 183 205 176 207 247 167 174 262 247 240 205 191 195 196 193 195
318 271 298 141 196 268 298 285 241 235 247 220 240 232 225 247 287 212 252 273 267 235 207 170 205 209 317 316 106 173 191 175 125 95 189 160 253 288 234 173 192 186 182 181 199
305 322 313 34 357 32 350 276 265 247 237 218 220 235 255 243 227 262 288 291 296 223 205 167 144 206 223 220 158 191 190 192 164 157 171 212 217 249 223 191 191 200 176 183 192
211 261 299 311 321 324 259 274 302 287 273 255 257 221 214 188 257 266 289 290 299 297 211 164 191 173 227 216 197 240 245 183 192 200 179 219 198 216 205 199 199 196 178 169 196
328 353 343 294 289 293 287 243 298 306 261 277 221 226 194 180 201 207 253 221 247 314 256 197 208 169 218 210 198 223 246 238 224 202 140 131 229 238 201 75 141 188 176 181 179
311 307 271 284 299 319 211 331 305 313 259 237 281 298 212 201 188 195 233 252 245 276 303 166 189 129 230 183 171 235 231 204 197 164 153 147 215 158 184 196 193 191 190 190 183